AAL349 KDSM-KORD

Flight info

Callsign AAL349
Flight time 0h 55m
Altitude 39000
Route MYRRS FYTTE7
Aircraft A319/M-SDE3FGHIRWY/LB1

Departure

Time 2026-04-15 15:07
Airport Des Moines International Airport (KDSM)

Arrival

Time 2026-04-15 16:02
Airport Chicago O'Hare International Airport (KORD)
Time Latitude Longitude Altitude Speed Heading
2026-04-15 14:46 41.53443 -93.65094 965 ft 0 kts 131°
2026-04-15 14:58 41.53446 -93.65098 968 ft 3 kts 131°
2026-04-15 14:59 41.53464 -93.65124 967 ft 4 kts 138°
2026-04-15 14:59 41.53485 -93.65145 965 ft 4 kts 160°
2026-04-15 14:59 41.53505 -93.65146 967 ft 2 kts 215°
2026-04-15 14:59 41.53506 -93.65146 967 ft 0 kts 215°
2026-04-15 15:01 41.53501 -93.65150 969 ft 3 kts 211°
2026-04-15 15:01 41.53452 -93.65161 965 ft 11 kts 186°
2026-04-15 15:01 41.53355 -93.65163 968 ft 16 kts 180°
2026-04-15 15:02 41.53277 -93.65163 965 ft 17 kts 180°
2026-04-15 15:02 41.53190 -93.65209 964 ft 14 kts 275°
2026-04-15 15:02 41.53253 -93.65309 967 ft 15 kts 311°
2026-04-15 15:02 41.53326 -93.65420 967 ft 17 kts 311°
2026-04-15 15:03 41.53407 -93.65544 968 ft 18 kts 311°
2026-04-15 15:03 41.53495 -93.65675 968 ft 20 kts 313°
2026-04-15 15:03 41.53596 -93.65818 968 ft 22 kts 313°
2026-04-15 15:03 41.53703 -93.65975 968 ft 24 kts 313°
2026-04-15 15:04 41.53818 -93.66141 966 ft 25 kts 313°
2026-04-15 15:04 41.53937 -93.66317 967 ft 26 kts 311°
2026-04-15 15:04 41.54061 -93.66502 968 ft 27 kts 312°
2026-04-15 15:04 41.54193 -93.66690 964 ft 28 kts 313°
2026-04-15 15:05 41.54326 -93.66885 965 ft 28 kts 311°
2026-04-15 15:05 41.54458 -93.67080 966 ft 27 kts 312°
2026-04-15 15:05 41.54560 -93.67230 967 ft 18 kts 313°
2026-04-15 15:05 41.54617 -93.67322 967 ft 6 kts 289°
2026-04-15 15:06 41.54587 -93.67396 964 ft 12 kts 221°
2026-04-15 15:06 41.54534 -93.67407 966 ft 6 kts 146°
2026-04-15 15:06 41.54515 -93.67379 967 ft 0 kts 129°
2026-04-15 15:07 41.54458 -93.67293 966 ft 48 kts 131°
2026-04-15 15:07 41.54048 -93.66695 968 ft 122 kts 132°
2026-04-15 15:07 41.53364 -93.65692 1191 ft 158 kts 131°
2026-04-15 15:07 41.52591 -93.64579 1886 ft 170 kts 136°
2026-04-15 15:08 41.51964 -93.63168 2632 ft 183 kts 119°
2026-04-15 15:08 41.51292 -93.61634 3160 ft 203 kts 130°
2026-04-15 15:08 41.50706 -93.59787 3660 ft 233 kts 100°
2026-04-15 15:08 41.50948 -93.57563 4187 ft 258 kts 69°
2026-04-15 15:09 41.51808 -93.55341 4729 ft 282 kts 61°
2026-04-15 15:09 41.52983 -93.53161 5519 ft 296 kts 47°
2026-04-15 15:09 41.54393 -93.51132 6536 ft 301 kts 46°
2026-04-15 15:09 41.55829 -93.49062 7534 ft 306 kts 46°
2026-04-15 15:10 41.57287 -93.46953 8556 ft 311 kts 46°
2026-04-15 15:10 41.58763 -93.44815 9557 ft 316 kts 45°
2026-04-15 15:10 41.60269 -93.42638 10372 ft 327 kts 45°
2026-04-15 15:10 41.61861 -93.40334 10856 ft 347 kts 45°
2026-04-15 15:11 41.63521 -93.37922 11652 ft 356 kts 45°
2026-04-15 15:11 41.65209 -93.35465 12511 ft 362 kts 45°
2026-04-15 15:11 41.66928 -93.32956 13362 ft 369 kts 45°
2026-04-15 15:11 41.68677 -93.30409 14147 ft 375 kts 46°
2026-04-15 15:12 41.70457 -93.27821 14870 ft 381 kts 46°
2026-04-15 15:12 41.72265 -93.25187 15595 ft 388 kts 46°
2026-04-15 15:12 41.74103 -93.22503 16314 ft 395 kts 46°
2026-04-15 15:12 41.75976 -93.19771 17019 ft 401 kts 47°
2026-04-15 15:13 41.77879 -93.16995 17722 ft 408 kts 47°
2026-04-15 15:13 41.79811 -93.14176 18381 ft 414 kts 47°
2026-04-15 15:13 41.81769 -93.11316 19006 ft 419 kts 47°
2026-04-15 15:13 41.83750 -93.08417 19643 ft 424 kts 47°
2026-04-15 15:14 41.85754 -93.05479 20341 ft 430 kts 47°
2026-04-15 15:14 41.87760 -93.02528 21019 ft 436 kts 47°
2026-04-15 15:14 41.89811 -92.99505 21771 ft 442 kts 47°
2026-04-15 15:14 41.91897 -92.96434 22456 ft 447 kts 47°
2026-04-15 15:15 41.94003 -92.93335 23066 ft 452 kts 47°
2026-04-15 15:15 41.96132 -92.90198 23646 ft 457 kts 47°
2026-04-15 15:15 41.98285 -92.87023 24134 ft 463 kts 47°
2026-04-15 15:15 42.00464 -92.83805 24609 ft 468 kts 47°
2026-04-15 15:16 42.02669 -92.80543 25054 ft 474 kts 47°
2026-04-15 15:16 42.04901 -92.77241 25502 ft 480 kts 47°
2026-04-15 15:16 42.07160 -92.73896 25941 ft 486 kts 47°
2026-04-15 15:16 42.09440 -92.70506 26390 ft 491 kts 47°
2026-04-15 15:17 42.11748 -92.67069 26791 ft 497 kts 47°
2026-04-15 15:17 42.14077 -92.63600 27219 ft 502 kts 47°
2026-04-15 15:17 42.16431 -92.60092 27689 ft 507 kts 47°
2026-04-15 15:17 42.18815 -92.56539 28118 ft 513 kts 47°
2026-04-15 15:18 42.21221 -92.52951 28523 ft 518 kts 47°
2026-04-15 15:18 42.23649 -92.49324 28938 ft 523 kts 47°
2026-04-15 15:18 42.26100 -92.45659 29348 ft 528 kts 47°
2026-04-15 15:18 42.28572 -92.41955 29762 ft 533 kts 47°
2026-04-15 15:19 42.31065 -92.38212 30134 ft 538 kts 47°
2026-04-15 15:19 42.33573 -92.34438 30517 ft 541 kts 47°
2026-04-15 15:19 42.36094 -92.30639 30917 ft 544 kts 48°
2026-04-15 15:19 42.38626 -92.26822 31310 ft 546 kts 47°
2026-04-15 15:20 42.41170 -92.22991 31711 ft 548 kts 47°
2026-04-15 15:20 42.43723 -92.19140 32098 ft 551 kts 48°
2026-04-15 15:20 42.46248 -92.15303 32466 ft 553 kts 50°
2026-04-15 15:20 42.48498 -92.11101 32972 ft 550 kts 61°
2026-04-15 15:21 42.50260 -92.06531 33497 ft 545 kts 71°
2026-04-15 15:21 42.51516 -92.01730 34000 ft 536 kts 81°
2026-04-15 15:21 42.52256 -91.96827 34487 ft 526 kts 91°
2026-04-15 15:21 42.52495 -91.91936 34933 ft 515 kts 99°
2026-04-15 15:22 42.52530 -91.87084 35242 ft 515 kts 99°
2026-04-15 15:22 42.52560 -91.82238 35653 ft 514 kts 99°
2026-04-15 15:22 42.52585 -91.77398 36071 ft 512 kts 99°
2026-04-15 15:22 42.52609 -91.72575 36499 ft 511 kts 99°
2026-04-15 15:23 42.52630 -91.67765 36899 ft 510 kts 99°
2026-04-15 15:23 42.52649 -91.62956 37303 ft 509 kts 100°
2026-04-15 15:23 42.52667 -91.58178 37707 ft 507 kts 100°
2026-04-15 15:23 42.52685 -91.53392 38098 ft 506 kts 100°
2026-04-15 15:24 42.52699 -91.48624 38390 ft 507 kts 101°
2026-04-15 15:24 42.52707 -91.43836 38624 ft 508 kts 100°
2026-04-15 15:24 42.52713 -91.39047 38770 ft 509 kts 100°
2026-04-15 15:24 42.52718 -91.34258 38810 ft 506 kts 100°
2026-04-15 15:25 42.52725 -91.24741 38816 ft 504 kts 100°
2026-04-15 15:25 42.52725 -91.15235 38815 ft 504 kts 100°
2026-04-15 15:26 42.52714 -91.05723 38808 ft 505 kts 99°
2026-04-15 15:26 42.52689 -90.96176 38663 ft 510 kts 100°
2026-04-15 15:27 42.52667 -90.91325 38014 ft 520 kts 100°
2026-04-15 15:27 42.52643 -90.86385 37142 ft 525 kts 99°
2026-04-15 15:27 42.52625 -90.81435 36241 ft 527 kts 98°
2026-04-15 15:27 42.52610 -90.76463 35296 ft 528 kts 98°
2026-04-15 15:28 42.52595 -90.71486 34493 ft 526 kts 97°
2026-04-15 15:28 42.52576 -90.66550 33806 ft 520 kts 97°
2026-04-15 15:28 42.52549 -90.61743 33006 ft 514 kts 97°
2026-04-15 15:28 42.52516 -90.56873 32199 ft 507 kts 97°
2026-04-15 15:29 42.52480 -90.52180 31368 ft 501 kts 97°
2026-04-15 15:29 42.52440 -90.47425 30544 ft 495 kts 97°
2026-04-15 15:29 42.52402 -90.42840 29736 ft 490 kts 97°
2026-04-15 15:29 42.52364 -90.38197 28832 ft 484 kts 97°
2026-04-15 15:30 42.52328 -90.33729 28024 ft 476 kts 96°
2026-04-15 15:30 42.52292 -90.29273 27233 ft 469 kts 96°
2026-04-15 15:30 42.52259 -90.24871 26467 ft 463 kts 96°
2026-04-15 15:30 42.52228 -90.20535 25738 ft 457 kts 96°
2026-04-15 15:31 42.52199 -90.16265 25039 ft 451 kts 96°
2026-04-15 15:31 42.52168 -90.12031 24360 ft 446 kts 96°
2026-04-15 15:31 42.52137 -90.07856 23692 ft 440 kts 96°
2026-04-15 15:31 42.52106 -90.03731 22958 ft 435 kts 96°
2026-04-15 15:32 42.52069 -89.99648 22209 ft 430 kts 95°
2026-04-15 15:32 42.52029 -89.95620 21433 ft 426 kts 95°
2026-04-15 15:32 42.51990 -89.91612 20878 ft 424 kts 95°
2026-04-15 15:32 42.51951 -89.87635 20460 ft 420 kts 95°
2026-04-15 15:33 42.51911 -89.83694 20039 ft 417 kts 95°
2026-04-15 15:33 42.51868 -89.79783 19617 ft 413 kts 95°
2026-04-15 15:33 42.51658 -89.75936 19200 ft 406 kts 103°
2026-04-15 15:33 42.51257 -89.72164 18780 ft 403 kts 104°
2026-04-15 15:34 42.50809 -89.68429 18378 ft 399 kts 104°
2026-04-15 15:34 42.50342 -89.64729 17957 ft 397 kts 105°
2026-04-15 15:34 42.49870 -89.61061 17515 ft 394 kts 105°
2026-04-15 15:34 42.49402 -89.57427 17102 ft 390 kts 104°
2026-04-15 15:35 42.48949 -89.53847 16975 ft 379 kts 104°
2026-04-15 15:35 42.48519 -89.50381 17001 ft 369 kts 104°
2026-04-15 15:35 42.48096 -89.46966 17000 ft 367 kts 104°
2026-04-15 15:35 42.47672 -89.43565 17000 ft 366 kts 104°
2026-04-15 15:36 42.47247 -89.40165 16999 ft 366 kts 104°
2026-04-15 15:36 42.46828 -89.36770 16791 ft 366 kts 104°
2026-04-15 15:36 42.46416 -89.33380 16533 ft 363 kts 104°
2026-04-15 15:36 42.46008 -89.30012 16277 ft 362 kts 104°
2026-04-15 15:37 42.45599 -89.26662 16025 ft 360 kts 104°
2026-04-15 15:37 42.45190 -89.23327 15768 ft 358 kts 104°
2026-04-15 15:37 42.44777 -89.20002 15518 ft 357 kts 104°
2026-04-15 15:37 42.44363 -89.16693 15276 ft 356 kts 104°
2026-04-15 15:38 42.43949 -89.13396 15033 ft 354 kts 104°
2026-04-15 15:38 42.43538 -89.10118 14794 ft 353 kts 104°
2026-04-15 15:38 42.43126 -89.06886 14556 ft 352 kts 104°
2026-04-15 15:38 42.42712 -89.03633 14302 ft 350 kts 104°
2026-04-15 15:39 42.42301 -89.00383 14069 ft 349 kts 104°
2026-04-15 15:39 42.41893 -88.97151 13835 ft 348 kts 104°
2026-04-15 15:39 42.41485 -88.93929 13611 ft 346 kts 104°
2026-04-15 15:39 42.41082 -88.90742 13312 ft 343 kts 103°
2026-04-15 15:40 42.40680 -88.87562 12946 ft 342 kts 103°
2026-04-15 15:40 42.40276 -88.84391 12566 ft 341 kts 102°
2026-04-15 15:40 42.39870 -88.81235 12194 ft 340 kts 102°
2026-04-15 15:40 42.39463 -88.78094 11816 ft 338 kts 102°
2026-04-15 15:41 42.39057 -88.74969 11435 ft 337 kts 102°
2026-04-15 15:41 42.38655 -88.71862 11178 ft 331 kts 102°
2026-04-15 15:41 42.38266 -88.68835 11028 ft 324 kts 102°
2026-04-15 15:41 42.37882 -88.65853 10981 ft 321 kts 102°
2026-04-15 15:42 42.37496 -88.62885 10990 ft 320 kts 102°
2026-04-15 15:42 42.37109 -88.59916 10991 ft 320 kts 102°
2026-04-15 15:42 42.36722 -88.56950 10974 ft 321 kts 102°
2026-04-15 15:42 42.36334 -88.53988 10887 ft 320 kts 102°
2026-04-15 15:43 42.35948 -88.51027 10813 ft 319 kts 102°
2026-04-15 15:43 42.35560 -88.48074 10745 ft 319 kts 101°
2026-04-15 15:43 42.35175 -88.45126 10676 ft 318 kts 102°
2026-04-15 15:43 42.34784 -88.42177 10490 ft 318 kts 103°
2026-04-15 15:44 42.34119 -88.39359 10254 ft 313 kts 117°
2026-04-15 15:44 42.33015 -88.36862 10130 ft 308 kts 129°
2026-04-15 15:44 42.31750 -88.34526 10015 ft 308 kts 129°
2026-04-15 15:44 42.30495 -88.32182 9899 ft 307 kts 128°
2026-04-15 15:45 42.29211 -88.29879 9777 ft 306 kts 131°
2026-04-15 15:45 42.27863 -88.27663 9657 ft 305 kts 133°
2026-04-15 15:45 42.26485 -88.25488 9526 ft 304 kts 134°
2026-04-15 15:45 42.25102 -88.23337 9399 ft 303 kts 134°
2026-04-15 15:46 42.23735 -88.21210 9270 ft 300 kts 133°
2026-04-15 15:46 42.22831 -88.19803 9185 ft 302 kts 134°
2026-04-15 15:46 42.21457 -88.17649 9057 ft 302 kts 133°
2026-04-15 15:46 42.19995 -88.15635 8927 ft 299 kts 143°
2026-04-15 15:47 42.18268 -88.14127 8815 ft 294 kts 157°
2026-04-15 15:47 42.16386 -88.13105 8712 ft 290 kts 163°
2026-04-15 15:47 42.13887 -88.11836 8583 ft 289 kts 163°
2026-04-15 15:47 42.12007 -88.10874 8481 ft 289 kts 164°
2026-04-15 15:48 42.10134 -88.09911 8380 ft 288 kts 163°
2026-04-15 15:48 42.08256 -88.08948 8273 ft 288 kts 165°
2026-04-15 15:48 42.07000 -88.08306 8208 ft 285 kts 164°
2026-04-15 15:48 42.05142 -88.07361 8107 ft 285 kts 164°
2026-04-15 15:49 42.03288 -88.06416 8007 ft 285 kts 164°
2026-04-15 15:49 42.01440 -88.05470 7906 ft 283 kts 163°
2026-04-15 15:49 41.99596 -88.04530 7811 ft 283 kts 163°
2026-04-15 15:49 41.97777 -88.03605 7704 ft 283 kts 164°
2026-04-15 15:50 41.95940 -88.02670 7600 ft 282 kts 165°
2026-04-15 15:50 41.94109 -88.01741 7505 ft 281 kts 164°
2026-04-15 15:50 41.92280 -88.00808 7401 ft 281 kts 163°
2026-04-15 15:50 41.90572 -87.99492 7305 ft 288 kts 145°
2026-04-15 15:51 41.89258 -87.97431 7206 ft 296 kts 124°
2026-04-15 15:51 41.88541 -87.94831 7108 ft 301 kts 102°
2026-04-15 15:51 41.88441 -87.92010 7014 ft 303 kts 91°
2026-04-15 15:51 41.88445 -87.89186 6918 ft 302 kts 91°
2026-04-15 15:52 41.88445 -87.86368 6821 ft 302 kts 92°
2026-04-15 15:52 41.88441 -87.83568 6725 ft 300 kts 92°
2026-04-15 15:52 41.88436 -87.80760 6646 ft 301 kts 92°
2026-04-15 15:52 41.88433 -87.77950 6556 ft 301 kts 91°
2026-04-15 15:53 41.88431 -87.75145 6485 ft 299 kts 91°
2026-04-15 15:53 41.88428 -87.72354 6414 ft 300 kts 92°
2026-04-15 15:53 41.88424 -87.69592 6331 ft 290 kts 92°
2026-04-15 15:53 41.88420 -87.66951 6257 ft 276 kts 92°
2026-04-15 15:54 41.88415 -87.64425 6183 ft 268 kts 92°
2026-04-15 15:54 41.88411 -87.61931 6106 ft 266 kts 92°
2026-04-15 15:54 41.88368 -87.59455 6023 ft 264 kts 100°
2026-04-15 15:54 41.87820 -87.57146 5952 ft 260 kts 115°
2026-04-15 15:55 41.87510 -87.54755 5872 ft 265 kts 87°
2026-04-15 15:55 41.88091 -87.52423 5804 ft 266 kts 55°
2026-04-15 15:55 41.89421 -87.50771 5728 ft 261 kts 24°
2026-04-15 15:55 41.91142 -87.50218 5646 ft 251 kts 352°
2026-04-15 15:56 41.92806 -87.50650 5578 ft 245 kts 334°
2026-04-15 15:56 41.94280 -87.51708 5494 ft 237 kts 317°
2026-04-15 15:56 41.95432 -87.53227 5192 ft 230 kts 301°
2026-04-15 15:56 41.96190 -87.55079 4983 ft 223 kts 285°
2026-04-15 15:57 41.96538 -87.57110 5033 ft 223 kts 271°
2026-04-15 15:57 41.96570 -87.59192 4899 ft 223 kts 266°
2026-04-15 15:57 41.96571 -87.61269 4645 ft 222 kts 266°
2026-04-15 15:57 41.96574 -87.63333 4358 ft 221 kts 266°
2026-04-15 15:58 41.96576 -87.65387 4050 ft 219 kts 266°
2026-04-15 15:58 41.96579 -87.67389 3768 ft 210 kts 265°
2026-04-15 15:58 41.96581 -87.69312 3504 ft 201 kts 264°
2026-04-15 15:58 41.96582 -87.71156 3249 ft 194 kts 264°
2026-04-15 15:59 41.96583 -87.72931 2997 ft 186 kts 264°
2026-04-15 15:59 41.96585 -87.74612 2756 ft 174 kts 264°
2026-04-15 15:59 41.96585 -87.76189 2541 ft 164 kts 264°
2026-04-15 15:59 41.96585 -87.77692 2331 ft 156 kts 264°
2026-04-15 16:00 41.96584 -87.79112 2120 ft 148 kts 262°
2026-04-15 16:00 41.96584 -87.80456 1925 ft 140 kts 263°
2026-04-15 16:00 41.96584 -87.81723 1750 ft 132 kts 263°
2026-04-15 16:00 41.96583 -87.82939 1585 ft 129 kts 262°
2026-04-15 16:01 41.96580 -87.84158 1414 ft 132 kts 264°
2026-04-15 16:01 41.96580 -87.85408 1254 ft 135 kts 265°
2026-04-15 16:01 41.96572 -87.86689 1085 ft 139 kts 264°
2026-04-15 16:01 41.96577 -87.88023 846 ft 144 kts 264°
2026-04-15 16:02 41.96579 -87.89355 702 ft 142 kts 265°
2026-04-15 16:02 41.96571 -87.90602 671 ft 116 kts 270°
2026-04-15 16:02 41.96571 -87.91453 668 ft 66 kts 270°
2026-04-15 16:02 41.96571 -87.91929 669 ft 39 kts 269°
2026-04-15 16:03 41.96644 -87.92083 669 ft 16 kts
2026-04-15 16:03 41.96705 -87.92081 669 ft 0 kts
2026-04-15 16:03 41.96709 -87.92081 669 ft 3 kts 358°
2026-04-15 16:03 41.96758 -87.92083 668 ft 11 kts
2026-04-15 16:04 41.96847 -87.92083 668 ft 14 kts 360°
2026-04-15 16:04 41.96951 -87.92084 669 ft 15 kts 359°
2026-04-15 16:04 41.97038 -87.92027 669 ft 16 kts 76°
2026-04-15 16:04 41.97038 -87.91874 669 ft 17 kts 89°
2026-04-15 16:05 41.97040 -87.91710 670 ft 18 kts 89°
2026-04-15 16:05 41.97041 -87.91534 670 ft 20 kts 91°
2026-04-15 16:05 41.97041 -87.91343 670 ft 20 kts 90°
2026-04-15 16:05 41.97042 -87.91145 669 ft 22 kts 90°
2026-04-15 16:06 41.97042 -87.90932 669 ft 24 kts 90°
2026-04-15 16:06 41.97043 -87.90705 668 ft 25 kts 90°
2026-04-15 16:06 41.97040 -87.90469 668 ft 25 kts 92°
2026-04-15 16:06 41.97040 -87.90264 669 ft 18 kts 88°
2026-04-15 16:07 41.97077 -87.90131 669 ft 14 kts 15°
2026-04-15 16:07 41.97180 -87.90135 669 ft 12 kts 349°
2026-04-15 16:07 41.97290 -87.90160 668 ft 7 kts 25°
2026-04-15 16:08 41.97298 -87.90112 669 ft 3 kts 91°
2026-04-15 16:08 41.97298 -87.90093 669 ft 0 kts 90°